User: anonymous   Login
Location: Dentlein
(49.1477°N, 10.4231°E)
Time: 05:05:07
(UTC+00:00)
Language:

Cosmos 468 Rocket - Orbit

View from above orbital plane
View from above orbital plane
View from above satellite
View from above satellite

Ground track
Ground track

The orbit data is extracted from the following two-line orbital elements,

1 05707U 71114B   24204.39277055  .00000863  00000-0  28300-3 0  9996
2 05707  74.0290 341.8225 0023777 138.4248 221.8720 14.39720805755440
Epoch (UTC): 22 July 2024 09:25:35
Eccentricity: 0.0023777
inclination: 74.0290°
perigee height: 742 km
apogee height: 776 km
right ascension of ascending node: 341.8225°
argument of perigee: 138.4248°
revolutions per day: 14.39720805
mean anomaly at epoch: 221.8720°
orbit number at epoch: 75544

The dashed part of the orbit path shows where the satellite is in the earth's shadow,  

DLR